Knoxville, TN

2:19 AM EDT on March 25, 2017 (GMT -0400)
McGhee Tyson

Weather History for KTYS - March, 2012

Change the Weather History Date:

Friday, March 2, 2012

  Actual Average Record
Temperature  
Mean Temperature 59 °F 46 °F  
Max Temperature 72 °F 57 °F 79 °F (1976)
Min Temperature 46 °F 36 °F 10 °F (1980)
Degree Days  
Heating Degree Days 6 19  
Month to date heating degree days 13 38  
Since 1 July heating degree days 2480 2934  
Cooling Degree Days 0 0  
Month to date cooling degree days 0 0  
Year to date cooling degree days 0 0  
Growing Degree Days 9 (Base 50)    
Moisture  
Dew Point 52 °F    
Average Humidity 80    
Maximum Humidity 93    
Minimum Humidity 66    
Precipitation  
Precipitation 0.89 in 0.15 in 2.78 in (1934)
Month to date precipitation 1.31 0.29  
Year to date precipitation 11.05 8.87  
Snow  
Snow 0.00 in 0.10 in - ()
Month to date snowfall 0.0 0.1  
Since 1 July snowfall 0.1 5.2  
Snow Depth 0.00 in    
Sea Level Pressure  
Sea Level Pressure 29.69 in    
Wind  
Wind Speed 11 mph (SSW)    
Max Wind Speed 46 mph    
Max Gust Speed 58 mph    
Visibility 8 miles    
Events Rain , Thunderstorm    
T = Trace of Precipitation, MM = Missing Value Source: NWS Daily Summary

Daily Weather History Graph

Daily Weather History Graph

Search for Another Location

Airport or City:

Trip Planner

Search our weather history database for the weather conditions in past years. The results will help you decide how hot, cold, wet, or windy it might be!

Date:

Astronomy

Mar. 02, 2012 Rise Set
Actual Time 7:04 AM EST 6:32 PM EST
Civil Twilight 6:38 AM EST 6:58 PM EST
Nautical Twilight 6:08 AM EST 7:27 PM EST
Astronomical Twilight 5:39 AM EST 7:57 PM EST
Moon 12:52 PM EST (3/2) 2:44 AM EST (3/2)
Length of Visible Light 12h 19m
Length of Day
11h 28m
Waxing Gibbous, 66% of the Moon is Illuminated
Mar 2
Waxing Gibbous
Mar 8
Full
Mar 14
Last Quarter
Mar 22
New
Mar 30
First Quarter

Hourly Weather History & Observations

Time (EST) Temp. Windchill Dew Point Humidity Pressure Visibility Wind Dir Wind Speed Gust Speed Precip Events Conditions
12:53 AM 46.0 °F - 37.9 °F 73% 29.84 in 10.0 mi Calm Calm - N/A   Clear
1:53 AM 48.0 °F - 37.0 °F 66% 29.83 in 10.0 mi North 5.8 mph - N/A   Clear
2:53 AM 46.0 °F 44.8 °F 37.0 °F 71% 29.83 in 10.0 mi ESE 3.5 mph - N/A   Clear
3:53 AM 48.9 °F - 37.9 °F 66% 29.83 in 10.0 mi North 3.5 mph - N/A   Mostly Cloudy
4:34 AM 46.4 °F - 39.2 °F 76% 29.83 in 10.0 mi Calm Calm - 0.00 in Rain , Thunderstorm Light Thunderstorms and Rain
4:53 AM 46.9 °F - 37.9 °F 71% 29.82 in 10.0 mi Calm Calm - 0.00 in Rain , Thunderstorm Light Thunderstorms and Rain
5:30 AM 48.2 °F - 42.8 °F 82% 29.83 in 7.0 mi SE 4.6 mph - 0.06 in Rain Light Rain
5:45 AM 48.2 °F - 42.8 °F 82% 29.82 in 10.0 mi NE 5.8 mph - 0.06 in   Overcast
5:53 AM 48.0 °F - 42.1 °F 80% 29.81 in 10.0 mi ENE 3.5 mph - 0.06 in   Overcast
6:53 AM 48.0 °F - 43.0 °F 83% 29.80 in 10.0 mi Calm Calm - N/A   Overcast
7:53 AM 48.9 °F - 44.1 °F 83% 29.78 in 10.0 mi Calm Calm - N/A   Mostly Cloudy
8:33 AM 50.0 °F - 42.8 °F 76% 29.77 in 10.0 mi NNE 5.8 mph - N/A   Overcast
8:53 AM 51.1 °F - 43.0 °F 74% 29.76 in 10.0 mi NNE 4.6 mph - N/A   Mostly Cloudy
9:53 AM 53.1 °F - 45.0 °F 74% 29.74 in 10.0 mi Calm Calm - N/A   Overcast
10:53 AM 64.0 °F - 57.0 °F 78% 29.72 in 10.0 mi SSW 15.0 mph - 0.00 in   Overcast
11:53 AM 69.1 °F - 59.0 °F 70% 29.70 in 10.0 mi SSW 19.6 mph 27.6 mph N/A   Overcast
12:53 PM 66.9 °F - 59.0 °F 76% 29.68 in 5.0 mi SSW 23.0 mph 33.4 mph 0.00 in Rain Light Rain
1:05 PM 66.2 °F - 59.0 °F 78% 29.67 in 6.0 mi SSW 21.9 mph 32.2 mph 0.00 in Rain , Thunderstorm Light Thunderstorms and Rain
1:46 PM 68.0 °F - 60.8 °F 78% 29.66 in 6.0 mi SSW 21.9 mph 29.9 mph 0.02 in   Mostly Cloudy
1:53 PM 68.0 °F - 60.1 °F 76% 29.65 in 6.0 mi SW 18.4 mph 27.6 mph 0.02 in   Overcast
2:53 PM 68.0 °F - 60.1 °F 76% 29.63 in 10.0 mi South 17.3 mph - 0.00 in   Overcast
3:53 PM 69.1 °F - 61.0 °F 75% 29.60 in 10.0 mi SSW 13.8 mph - N/A   Mostly Cloudy
4:35 PM 69.8 °F - 60.8 °F 73% 29.60 in 10.0 mi SSW 13.8 mph 25.3 mph 0.00 in Rain , Thunderstorm Light Thunderstorms and Rain
4:53 PM 70.0 °F - 60.1 °F 71% 29.58 in 10.0 mi South 12.7 mph - 0.00 in Rain , Thunderstorm Light Thunderstorms and Rain
5:04 PM 71.6 °F - 59.0 °F 64% 29.59 in 10.0 mi South 13.8 mph 19.6 mph 0.00 in   Mostly Cloudy
5:53 PM 72.0 °F - 57.0 °F 59% 29.57 in 10.0 mi South 13.8 mph - 0.00 in   Mostly Cloudy
6:43 PM 69.8 °F - 57.2 °F 64% 29.60 in 10.0 mi SW 17.3 mph 27.6 mph 0.00 in Rain , Thunderstorm Light Thunderstorms and Rain
6:53 PM 69.1 °F - 59.0 °F 70% 29.59 in 10.0 mi SW 16.1 mph 24.2 mph 0.00 in Rain , Thunderstorm Light Thunderstorms and Rain
7:27 PM 62.6 °F - 59.0 °F 88% 29.62 in 10.0 mi SW 5.8 mph - 0.02 in   Overcast
7:53 PM 61.0 °F - 57.9 °F 90% 29.60 in 10.0 mi SW 6.9 mph - 0.02 in   Overcast
8:53 PM 68.0 °F - 57.9 °F 70% 29.59 in 10.0 mi SSW 18.4 mph - N/A   Overcast
9:48 PM 66.2 °F - 57.2 °F 73% 29.66 in 10.0 mi West 33.4 mph 42.6 mph N/A Thunderstorm Thunderstorm
9:53 PM 61.0 °F - 52.0 °F 72% 29.65 in 2.0 mi West 42.6 mph 57.5 mph 0.00 in Rain , Thunderstorm Heavy Thunderstorms and Rain
9:55 PM 57.2 °F - 53.6 °F 88% 29.65 in 1.0 mi West 40.3 mph 57.5 mph 0.00 in Rain , Thunderstorm Heavy Thunderstorms and Rain
10:26 PM 57.2 °F - 55.4 °F 94% 29.64 in 2.5 mi SW 17.3 mph - 0.64 in Rain , Thunderstorm Light Thunderstorms and Rain
10:33 PM 57.2 °F - 55.4 °F 94% 29.65 in 5.0 mi SW 15.0 mph - 0.67 in Rain , Thunderstorm Light Thunderstorms and Rain
10:53 PM 57.0 °F - 55.9 °F 96% 29.62 in 4.0 mi SW 10.4 mph - 0.74 in Rain , Thunderstorm Light Thunderstorms and Rain
11:12 PM 57.2 °F - 55.4 °F 94% 29.65 in 7.0 mi South 10.4 mph - 0.03 in Rain Light Rain
11:42 PM 57.2 °F - 55.4 °F 94% 29.65 in 10.0 mi South 8.1 mph - 0.05 in   Overcast
11:53 PM 57.9 °F - 55.9 °F 93% 29.63 in 10.0 mi SSW 9.2 mph - 0.05 in Rain Light Rain